TimeCDT,TemperatureF,Dew PointF,Humidity,Sea Level PressureIn,VisibilityMPH,Wind Direction,Wind SpeedMPH,Gust SpeedMPH,PrecipitationIn,Events,Conditions,WindDirDegrees,DateUTC
12:13 AM,51.8,42.8,71,30.33,10.0,ESE,5.8,-,N/A,,Clear,110,2013-09-16 05:13:00
12:33 AM,51.8,42.8,71,30.33,10.0,ESE,4.6,-,N/A,,Clear,110,2013-09-16 05:33:00
12:53 AM,50.0,42.8,76,30.34,10.0,ESE,5.8,-,N/A,,Clear,110,2013-09-16 05:53:00
1:13 AM,50.0,42.8,76,30.34,10.0,ESE,5.8,-,N/A,,Clear,110,2013-09-16 06:13:00
1:33 AM,50.0,42.8,76,30.34,10.0,ESE,5.8,-,N/A,,Clear,110,2013-09-16 06:33:00
1:53 AM,48.2,42.8,82,30.34,10.0,ESE,4.6,-,N/A,,Clear,110,2013-09-16 06:53:00
2:13 AM,48.2,42.8,82,30.34,10.0,ESE,3.5,-,N/A,,Clear,120,2013-09-16 07:13:00
2:33 AM,48.2,41.0,76,30.35,10.0,ESE,4.6,-,N/A,,Clear,120,2013-09-16 07:33:00
2:53 AM,44.6,39.2,81,30.34,10.0,Calm,Calm,-,N/A,,Clear,0,2013-09-16 07:53:00
3:13 AM,46.4,42.8,87,30.35,10.0,SE,3.5,-,N/A,,Clear,130,2013-09-16 08:13:00
3:33 AM,46.4,42.8,87,30.35,10.0,SE,5.8,-,N/A,,Clear,130,2013-09-16 08:33:00
3:53 AM,44.6,42.8,93,30.35,10.0,Calm,Calm,-,N/A,,Clear,0,2013-09-16 08:53:00
4:13 AM,44.6,42.8,93,30.35,10.0,Calm,Calm,-,N/A,,Clear,0,2013-09-16 09:13:00
4:33 AM,44.6,42.8,93,30.36,10.0,Calm,Calm,-,N/A,,Clear,0,2013-09-16 09:33:00
4:53 AM,46.4,44.6,93,30.36,10.0,Calm,Calm,-,N/A,,Clear,0,2013-09-16 09:53:00
5:13 AM,46.4,44.6,93,30.36,10.0,Calm,Calm,-,N/A,,Clear,0,2013-09-16 10:13:00
5:33 AM,44.6,42.8,93,30.36,10.0,Calm,Calm,-,N/A,,Clear,0,2013-09-16 10:33:00
5:53 AM,44.6,42.8,93,30.36,10.0,Calm,Calm,-,N/A,,Clear,0,2013-09-16 10:53:00
6:13 AM,44.6,42.8,93,30.36,10.0,ESE,4.6,-,N/A,,Clear,120,2013-09-16 11:13:00
6:33 AM,46.4,44.6,93,30.36,10.0,SE,5.8,-,N/A,,Clear,130,2013-09-16 11:33:00
6:53 AM,44.6,42.8,93,30.36,10.0,SSE,6.9,-,N/A,,Clear,150,2013-09-16 11:53:00
7:13 AM,46.4,42.8,87,30.36,10.0,SSE,6.9,-,N/A,,Clear,150,2013-09-16 12:13:00
7:33 AM,46.4,44.6,93,30.37,10.0,SSE,8.1,-,N/A,,Clear,160,2013-09-16 12:33:00
7:53 AM,46.4,44.6,93,30.37,10.0,SSE,5.8,-,N/A,,Clear,160,2013-09-16 12:53:00
8:13 AM,48.2,46.4,93,30.37,10.0,South,6.9,-,N/A,,Clear,170,2013-09-16 13:13:00
8:33 AM,48.2,46.4,93,30.37,10.0,South,10.4,-,N/A,,Clear,170,2013-09-16 13:33:00
8:53 AM,51.8,46.4,82,30.37,10.0,South,10.4,-,N/A,,Clear,170,2013-09-16 13:53:00
9:13 AM,51.8,46.4,82,30.37,10.0,South,11.5,-,N/A,,Clear,170,2013-09-16 14:13:00
9:33 AM,53.6,46.4,77,30.37,10.0,South,11.5,-,N/A,,Scattered Clouds,180,2013-09-16 14:33:00
9:53 AM,53.6,44.6,72,30.38,10.0,South,13.8,-,N/A,,Scattered Clouds,190,2013-09-16 14:53:00
10:13 AM,55.4,42.8,63,30.37,10.0,South,16.1,-,N/A,,Clear,190,2013-09-16 15:13:00
10:33 AM,55.4,44.6,67,30.37,10.0,SSE,12.7,-,N/A,,Clear,160,2013-09-16 15:33:00
10:53 AM,57.2,44.6,63,30.36,10.0,South,12.7,-,N/A,,Clear,170,2013-09-16 15:53:00
11:13 AM,57.2,44.6,63,30.35,10.0,South,11.5,-,N/A,,Clear,180,2013-09-16 16:13:00
11:33 AM,59.0,44.6,59,30.35,10.0,South,12.7,-,N/A,,Clear,170,2013-09-16 16:33:00
11:53 AM,59.0,44.6,59,30.35,10.0,South,15.0,19.6,N/A,,Clear,190,2013-09-16 16:53:00
12:13 PM,59.0,44.6,59,30.35,10.0,SSE,12.7,-,N/A,,Clear,160,2013-09-16 17:13:00
12:33 PM,60.8,44.6,55,30.35,10.0,South,12.7,-,N/A,,Clear,170,2013-09-16 17:33:00
12:53 PM,60.8,44.6,55,30.34,10.0,South,11.5,16.1,N/A,,Clear,170,2013-09-16 17:53:00
1:13 PM,62.6,42.8,48,30.33,10.0,South,11.5,-,N/A,,Clear,180,2013-09-16 18:13:00
1:33 PM,62.6,42.8,48,30.32,10.0,SSE,13.8,18.4,N/A,,Clear,160,2013-09-16 18:33:00
1:53 PM,62.6,42.8,48,30.31,10.0,SSE,10.4,17.3,N/A,,Clear,160,2013-09-16 18:53:00
2:13 PM,62.6,41.0,45,30.31,10.0,SSE,13.8,-,N/A,,Clear,160,2013-09-16 19:13:00
2:33 PM,64.4,41.0,42,30.29,10.0,South,10.4,-,N/A,,Clear,170,2013-09-16 19:33:00
2:53 PM,64.4,37.4,37,30.28,10.0,South,12.7,-,N/A,,Clear,190,2013-09-16 19:53:00
3:13 PM,64.4,39.2,40,30.27,10.0,South,12.7,16.1,N/A,,Clear,170,2013-09-16 20:13:00
3:33 PM,64.4,37.4,37,30.26,10.0,SSE,9.2,16.1,N/A,,Clear,150,2013-09-16 20:33:00
3:53 PM,66.2,37.4,35,30.24,10.0,SSE,13.8,17.3,N/A,,Clear,150,2013-09-16 20:53:00
4:13 PM,66.2,37.4,35,30.23,10.0,SE,11.5,17.3,N/A,,Clear,140,2013-09-16 21:13:00
4:33 PM,66.2,32.0,28,30.22,10.0,SE,12.7,18.4,N/A,,Clear,140,2013-09-16 21:33:00
4:53 PM,66.2,28.4,24,30.22,10.0,SE,15.0,18.4,N/A,,Clear,140,2013-09-16 21:53:00
5:13 PM,66.2,28.4,24,30.21,10.0,SE,13.8,-,N/A,,Clear,140,2013-09-16 22:13:00
5:33 PM,64.4,30.2,28,30.21,10.0,SSE,15.0,20.7,N/A,,Clear,150,2013-09-16 22:33:00
5:53 PM,64.4,30.2,28,30.20,10.0,SSE,13.8,18.4,N/A,,Clear,150,2013-09-16 22:53:00
6:13 PM,64.4,32.0,30,30.20,10.0,SE,13.8,-,N/A,,Clear,140,2013-09-16 23:13:00
6:33 PM,64.4,35.6,34,30.19,10.0,SSE,11.5,-,N/A,,Clear,150,2013-09-16 23:33:00
6:53 PM,62.6,39.2,42,30.19,10.0,SSE,9.2,-,N/A,,Clear,160,2013-09-16 23:53:00
7:13 PM,60.8,39.2,45,30.18,10.0,SSE,8.1,-,N/A,,Clear,160,2013-09-17 00:13:00
7:33 PM,57.2,42.8,59,30.17,10.0,SSE,6.9,-,N/A,,Clear,150,2013-09-17 00:33:00
7:53 PM,57.2,42.8,59,30.17,10.0,SSE,8.1,-,N/A,,Clear,150,2013-09-17 00:53:00
8:13 PM,57.2,42.8,59,30.17,10.0,SE,6.9,-,N/A,,Clear,140,2013-09-17 01:13:00
8:33 PM,55.4,42.8,63,30.17,10.0,SE,6.9,-,N/A,,Clear,130,2013-09-17 01:33:00
8:53 PM,55.4,44.6,67,30.17,10.0,SE,8.1,-,N/A,,Clear,140,2013-09-17 01:53:00
9:13 PM,55.4,44.6,67,30.17,10.0,SE,8.1,-,N/A,,Clear,140,2013-09-17 02:13:00
9:33 PM,55.4,44.6,67,30.17,10.0,SE,11.5,-,N/A,,Clear,140,2013-09-17 02:33:00
9:53 PM,57.2,44.6,63,30.16,10.0,SSE,12.7,16.1,N/A,,Clear,150,2013-09-17 02:53:00
10:13 PM,57.2,44.6,63,30.16,10.0,SSE,13.8,18.4,N/A,,Clear,150,2013-09-17 03:13:00
10:33 PM,57.2,44.6,63,30.15,10.0,SSE,13.8,-,N/A,,Clear,150,2013-09-17 03:33:00
10:53 PM,55.4,44.6,67,30.15,10.0,SSE,13.8,-,N/A,,Clear,150,2013-09-17 03:53:00
11:13 PM,55.4,46.4,72,30.15,10.0,SSE,12.7,-,N/A,,Clear,150,2013-09-17 04:13:00
11:33 PM,55.4,46.4,72,30.15,10.0,SSE,16.1,19.6,N/A,,Clear,150,2013-09-17 04:33:00
11:53 PM,55.4,46.4,72,30.15,10.0,SSE,16.1,-,N/A,,Clear,160,2013-09-17 04:53:00